Find Starlink 30981

NORAD ID: 58494 Int'l Des: 2023-186 Owner: SPXS Country: US Constellation: starlink operational
LEOCIRCULAR

リアルタイム位置

3D地球を読み込み中...

Starlink 30981について

説明を読み込み中...

次回通過

Passes for default location (London). Set your location on the main map for personalized predictions.

高度履歴

Loading altitude history...

軌道要素

1 58494U 23186X 26104.81037751 .00003979 00000-0 15405-3 0 9991
2 58494 42.9997 219.3740 0001112 268.5759 91.4966 15.27576304131410
Epoch: Apr 14, 2026 • Age: 6 hours

現在のステータス

高度 487.5 km
速度 7.62 km/s
衛星直下点 -21.30°S, 33.67°W
打ち上げ日 Dec 3, 2023
運用期間 2.3 years
タイプ internet

技術仕様

分類 Payload
質量 730.00 kg
乾燥質量 700.00 kg
総質量 730.00 kg
長さ 0.30 m
直径 4.10 m
スパン 29.00 m
形状 Box + pan
製造者 SPXS
バスタイプ Starlink V2M
フェーズステータス In Orbit
所有者/国 SPXS/US

Most Searched